Regional Weather Roundup
Issued by NWS

Home | Current Version | Previous Version | Graphics & Text | Print | Product List | Glossary On
Versions: 1 2 3 4 5 6 7 8 9 10 11 12 13 14 15 16 17 18 19 20 21 22 23 24 25 26 27 28 29 30 31 32 33 34 35 36 37 38 39 40 41 42 43 44 45 46 47 48 49 50
000
ASUS43 KMPX 210501
RWRMN
WEATHER ROUNDUP FOR MINNESOTA
NATIONAL WEATHER SERVICE TWIN CITIES/CHANHASSEN MN
1200 AM CDT SAT APR 21 2018


NOTE: "FAIR" INDICATES FEW OR NO CLOUDS BELOW 12,000 FEET WITH NO
SIGNIFICANT WEATHER AND/OR OBSTRUCTIONS TO VISIBILITY. N/A MEANS
CURRENT SKY AND/OR WEATHER CONDITIONS ARE NOT AVAILABLE.

MNZ060>063-068>070-210600-
   Twin Cities Metro

CITY           SKY/WX    TMP DP  RH WIND       PRES   REMARKS
TWIN CITIES    CLOUDY    43  27  53 NW3       30.44F
ST PAUL        FAIR      39  28  64 CALM      30.45S
CRYSTAL        FAIR      37  25  61 CALM      30.43S
BLAINE         FAIR      39  27  60 CALM      30.43F
LAKEVILLE      FAIR      34  28  80 CALM      30.44S
EDEN PRAIRIE   FAIR      41  27  57 CALM      30.43S
SOUTH ST PAUL  FAIR      39  25  58 CALM      30.43F
LAKE ELMO      FAIR      34  30  86 CALM      30.45S
$$
MNZ001>005-007-008-013>017-022>024-027-028-210600-
   Northwest Minnesota

CITY           SKY/WX    TMP DP  RH WIND       PRES   REMARKS
BEMIDJI        FAIR      40  22  50 SW3       30.38F
HALLOCK        FAIR      36  34  93 SE9       30.34F
ROSEAU         FAIR      37  34  87 S5        30.36S
WARROAD        FAIR      36  32  87 CALM      30.37R
THIEF RVR FALL FAIR      41  32  70 S6        30.37F
CROOKSTON      FAIR      43  36  75 S13       30.37F
FOSSTON        FAIR      36  23  60 S6        30.39S
DETROIT LAKES  FAIR      39  32  75 CALM      30.40S
MOORHEAD       FAIR      39  34  81 S9        30.40S
PARK RAPIDS    FAIR      37  24  59 CALM      30.38F
MAHNOMEN       FAIR      36  28  72 S9        30.38F
$$
MNZ006-009>011-018-025>026-210600-
   North Central Minnesota

CITY           SKY/WX    TMP DP  RH WIND       PRES   REMARKS
BAUDETTE       FAIR      36  32  85 W3        30.36R
FLAG ISLAND    FAIR      43  28  56 SW5       30.35S
INTL FALLS     FAIR      31  26  82 CALM      30.35S
WASKISH        FAIR      34  27  75 W5        30.38R WCI  30
BIG FORK       FAIR      32  21  64 CALM      30.39R
LONGVILLE      FAIR      30  23  74 CALM      30.39F
GRAND RAPIDS   FAIR      39  20  46 S5        30.41S
CRANE LAKE     FAIR      27  23  86 CALM      30.39R
ORR            FAIR      32  19  59 SE3       30.36R
COOK           FAIR      41  21  45 SW6       30.38S
WALKER         FAIR      40  20  44 SW3       30.39S
$$
MNZ012-019>021-037-210600-
   Northeast Minnesota

CITY           SKY/WX    TMP DP  RH WIND       PRES   REMARKS
DULUTH         FAIR      41  20  43 W7        30.40S
ELY            FAIR      28  19  69 CALM      30.38R
HIBBING        FAIR      39  19  44 SW3       30.39R
EVELETH        FAIR      40  22  49 W5        30.40S
DULUTH HARBOR  FAIR      41  25  52 SW6       30.42S
TWO HARBORS    FAIR      36  25  64 CALM      30.39S
SILVER BAY     FAIR      28  25  86 CALM      30.38F
GRAND MARAIS     N/A     32  24  72 NW3       30.40S
G MARAIS ARPRT FAIR      34  16  47 CALM      30.38F
$$
MNZ029>031-032-039>041-046>048-054>057-064-210600-
   West Central Minnesota

CITY           SKY/WX    TMP DP  RH WIND       PRES   REMARKS
FERGUS FALLS   FAIR      36  30  80 SE7       30.39S
WHEATON        PTCLDY    36  30  80 SE7       30.40F
MORRIS         CLOUDY    36  30  80 SE7       30.39F
ALEXANDRIA     FAIR      38  31  76 S6        30.40F
ELBOW LAKE     FAIR      33  31  91 E6        30.40F WCI  28
WADENA         FAIR      36  30  80 CALM      30.40S
GLENWOOD       FAIR      36  34  93 S3        30.41F
APPLETON       CLOUDY    36  30  80 E3        30.40F
BENSON         MOCLDY    37  30  75 S3        30.42F
ORTONVILLE     MOCLDY    34  30  86 SE7       30.39F WCI  28
MADISON        CLOUDY    36  34  93 SE3       30.39F
WILLMAR        FAIR      36  32  87 E3        30.43F
$$
MNZ033>034-036-042>043-049>051-058-059-210600-
   Central Minnesota

CITY           SKY/WX    TMP DP  RH WIND       PRES   REMARKS
ST CLOUD       FAIR      32  24  72 CALM      30.42F
SAUK CENTRE    FAIR      34  31  89 CALM      30.41F
PAYNESVILLE    FAIR      33  32  95 CALM      30.42F
AITKIN         FAIR      36  21  55 SW3       30.40S
PINE RIVER     FAIR      30  23  74 CALM      30.42F
BRAINERD       FAIR      36  23  59 S5        30.41F
STAPLES        FAIR      36  27  69 SW3       30.40F
LONG PRAIRIE   FAIR      32  28  86 CALM      30.41F
LITTLE FALLS   FAIR      34  21  60 CALM      30.42F
LITCHFIELD     FAIR      36  30  80 CALM      30.42F
BUFFALO        FAIR      33  28  81 CALM      30.44S
MAPLE LAKE     FAIR      33  30  88 CALM      30.43F
HUTCHINSON     FAIR      34  33  95 CALM      30.43F
$$
MNZ037-044-045-052-053-210600-
   East Central Minnesota

CITY           SKY/WX    TMP DP  RH WIND       PRES   REMARKS
PRINCETON      FAIR      32  25  74 CALM      30.43F
MORA           FAIR      32  25  74 CALM      30.44F
CAMBRIDGE      FAIR      36  25  64 CALM      30.43F
RUSH CITY      FAIR      34  25  69 CALM      30.43F
MOOSE LAKE     FAIR      32  19  59 CALM      30.39F
HINCKLEY       FAIR      30  27  86 CALM      30.42F
CLOQUET        FAIR      43  12  28 W6        30.40F
MCGREGOR       FAIR      34  21  60 CALM      30.41F
$$
MNZ071>073-080-081-089-090-097-098-210600-
   Southwest Minnesota

CITY           SKY/WX    TMP DP  RH WIND       PRES   REMARKS
MONTEVIDEO     PTCLDY    36  28  75 S3        30.40F
GRANITE FALLS  PTCLDY    37  31  81 E5        30.41F
CANBY          CLOUDY    35  33  94 CALM      30.40F
MARSHALL       CLOUDY    36  31  82 S5        30.40F
REDWOOD FALLS  CLOUDY    37  30  75 E5        30.40F
OLIVIA         CLOUDY    36  30  80 SE3       30.40F
PIPESTONE      CLOUDY   N/A N/A N/A SE6       30.36F
WINDOM         CLOUDY    36  19  51 CALM      30.39F
JACKSON        CLOUDY    36  30  80 E8        30.39F
TRACY          CLOUDY    39  31  73 S5        30.38F
SLAYTON        CLOUDY    35  31  86 SE7       30.39F WCI  29
$$
MNZ065>067-074>077-082>085-091>093-210600-
   South Central Minnesota

CITY           SKY/WX    TMP DP  RH WIND       PRES   REMARKS
MANKATO        FAIR      36  28  73 NE6       30.42F
NEW ULM        CLOUDY    39  27  60 NE3       30.41F
ST JAMES       CLOUDY    34  30  86 CALM      30.42F
FAIRMONT       CLOUDY    35  29  78 E3        30.41F
GLENCOE        FAIR      37  31  82 CALM      30.42F
OWATONNA       FAIR      36  30  80 CALM      30.43F
WASECA         FAIR      34  30  86 CALM      30.43F
ALBERT LEA     FAIR      36  27  69 CALM      30.42F
$$
MNZ078>079-086>088-094>096-210600-
   Southeast Minnesota

CITY           SKY/WX    TMP DP  RH WIND       PRES   REMARKS
ROCHESTER      FAIR      37  23  56 NW6       30.42F
RED WING       FAIR      34  25  69 S3        30.43F
STANTON        FAIR      35  30  85 CALM      30.42F
DODGE CENTER   FAIR      36  27  69 CALM      30.42F
WINONA         FAIR      36  32  87 CALM      30.42F
AUSTIN         FAIR      34  27  75 CALM      30.43S
PRESTON        FAIR      38  20  48 CALM      30.43S
$$
ABBREVIATIONS USED IN REMARKS
   TC - TEMPERATURES IN CELSIUS
  WCI - WIND CHILL INDEX
   HX - HEAT INDEX
  VSB - VISIBILITY
$$




USA.gov is the U.S. government's official web portal to all federal, state and local government web resources and services.